Weather History for Owensboro, KY

Change the Weather History Date:

Wednesday, January 16, 2013

  Actual Average Record
Temperature  
Mean Temperature 32 °F -  
Max Temperature 34 °F 40 °F 68 °F (1990)
Min Temperature 30 °F 22 °F -8 °F (1972)
Degree Days  
Heating Degree Days 33    
Moisture  
Dew Point 29 °F    
Average Humidity 88    
Maximum Humidity 96    
Minimum Humidity 79    
Precipitation  
Precipitation 0.00 in - - ()
Sea Level Pressure  
Sea Level Pressure 30.12 in    
Wind  
Wind Speed 5 mph (West)    
Max Wind Speed 9 mph    
Max Gust Speed -    
Visibility 8 miles    
Events      
Averages and records for this station are not official NWS values.
T = Trace of Precipitation, MM = Missing Value Source: NWS Daily Summary

Daily Weather History Graph

Daily Weather History Graph

Search for Another Location

Airport:

Trip Planner

Search our weather history database for the weather conditions in past years. The results will help you decide how hot, cold, wet, or windy it might be!

Date:

Astronomy

Jan. 16, 2013 Rise Set
Actual Time 7:02 AM CST 4:55 PM CST
Civil Twilight 6:33 AM CST 5:23 PM CST
Nautical Twilight 6:01 AM CST 5:55 PM CST
Astronomical Twilight 5:30 AM CST 6:27 PM CST
Moon 9:45 AM CST (1/16) 10:38 PM CST (1/16)
Length of Visible Light 10h 49m
Length of Day
9h 52m
Waxing Crescent, 28% of the Moon is Illuminated
Jan 16
Waxing Crescent
Jan 18
First Quarter
Jan 26
Full
Feb 3
Last Quarter
Feb 10
New

Hourly Weather History & Observations

Time (CST) Temp. Windchill Dew Point Humidity Pressure Visibility Wind Dir Wind Speed Gust Speed Precip Events Conditions
12:56 AM 32.0 °F 27.5 °F 28.0 °F 85% 30.09 in 10.0 mi North 4.6 mph - N/A   Overcast
1:56 AM 32.0 °F 28.7 °F 28.0 °F 85% 30.10 in 10.0 mi NNW 3.5 mph - N/A   Overcast
3:56 AM 32.9 °F 28.5 °F 28.0 °F 82% 30.08 in 10.0 mi NNW 4.6 mph - N/A   Overcast
4:40 AM 33.8 °F - 28.4 °F 81% 30.05 in 10.0 mi Calm Calm - N/A   Overcast
4:56 AM 32.9 °F - 29.1 °F 86% 30.07 in 10.0 mi Calm Calm - N/A   Mostly Cloudy
5:56 AM 32.0 °F 24.8 °F 30.0 °F 92% 30.08 in 7.0 mi WNW 8.1 mph - N/A   Mostly Cloudy
6:56 AM 32.0 °F 24.2 °F 29.1 °F 89% 30.12 in 7.0 mi NW 9.2 mph - N/A   Overcast
7:56 AM 32.0 °F 24.8 °F 29.1 °F 89% 30.14 in 6.0 mi NW 8.1 mph - N/A   Overcast
8:56 AM 32.0 °F 25.6 °F 28.0 °F 85% 30.15 in 6.0 mi NW 6.9 mph - N/A   Overcast
9:56 AM 32.9 °F 27.5 °F 28.0 °F 82% 30.14 in 6.0 mi WNW 5.8 mph - N/A   Haze
10:56 AM 32.9 °F 26.7 °F 28.0 °F 82% 30.12 in 10.0 mi NW 6.9 mph - N/A   Clear
11:56 AM 32.9 °F 26.7 °F 28.0 °F 82% 30.11 in 7.0 mi WNW 6.9 mph - N/A   Clear
12:56 PM 34.0 °F 31.0 °F 28.0 °F 79% 30.09 in 7.0 mi WNW 3.5 mph - N/A   Scattered Clouds
1:56 PM 34.0 °F 28.8 °F 29.1 °F 82% 30.10 in 7.0 mi WSW 5.8 mph - N/A   Clear
2:56 PM 32.9 °F 27.5 °F 29.1 °F 86% 30.12 in 10.0 mi WSW 5.8 mph - N/A   Scattered Clouds
3:56 PM 32.9 °F 28.5 °F 30.0 °F 89% 30.12 in 10.0 mi SSW 4.6 mph - N/A   Scattered Clouds
4:56 PM 32.0 °F 25.6 °F 29.1 °F 89% 30.12 in 10.0 mi SW 6.9 mph - N/A   Clear
5:56 PM 32.0 °F 27.5 °F 30.0 °F 92% 30.13 in 7.0 mi SSW 4.6 mph - N/A   Clear
6:56 PM 31.1 °F 26.4 °F 30.0 °F 96% 30.14 in 7.0 mi South 4.6 mph - N/A   Clear
7:56 PM 31.1 °F 26.4 °F 29.1 °F 92% 30.15 in 7.0 mi SW 4.6 mph - N/A   Clear
8:56 PM 31.1 °F 26.4 °F 29.1 °F 92% 30.16 in 8.0 mi SSW 4.6 mph - N/A   Clear
9:56 PM 30.0 °F - 29.1 °F 96% 30.16 in 7.0 mi Calm Calm - N/A   Clear
10:56 PM 30.0 °F - 29.1 °F 96% 30.15 in 7.0 mi Calm Calm - N/A   Clear
11:56 PM 30.0 °F - 29.1 °F 96% 30.16 in 6.0 mi Calm Calm - N/A   Clear